Погода в Батон-Руж

США     30°26′45″N   91°05′23″W
темп.,
°C
ветер,
м/с
пор.,
м/с
влажн.,
%
обл.,
%
осадки,
мм/ч
давл.,
гПа
погр.,
м
13 апреля, вт
вт1301:00+15юв258948 0.0 1014108
04:00+15юв269327 0.0 1013119
07:00+16в229443 0.1 101556
10:00+22вюв2486100 1.2 1017424
13:00+23в2593100 7.0 1016453
16:00+23вюв5887100 6.6 1015654
19:00+18юв51395100 20.6 1016574
22:00+17вюв3139210 2.5 1017432
14 апреля, ср
ср1401:00+17вюв3129549 3.1 1016356
04:00+19юв41294100 0.1 1015441
07:00+19юв51298100 29.4 1015523
10:00+19юв41197100 16.1 1017742
13:00+18юв31098100 29.0 1016642
16:00+18св3899100 27.1 1009460
19:00+20вюв51099100 69.4 1012398
22:00+19юв51398100 34.1 1014462
15 апреля, чт
чт1501:00+19ю31198100 39.1 1013366
04:00+19зсз239999 1.3 1012121
07:00+16с3998100 5.1 1014326
10:00+18ссв359396 1.7 1015481
13:00+20ссв468098 1.8 1014700
16:00+22св347197 0.0 10131000
19:00+20всв3782100 0.0 1012337
22:00+17св2591100 0.0 1014130
16 апреля, пт
пт1601:00+16всв3988100 0.0 1012331
04:00+15св2692100 0.1 1011197
07:00+15св3896100 1.7 1012297
10:00+15в2795100 1.0 1013323
13:00+18в4786100 1.1 1010437
16:00+17вюв3798100 4.7 1008401
19:00+17в41099100 7.9 1007584
22:00+18вюв31199100 14.8 1008413
17 апреля, сб
сб1701:00+17всв2499100 1.8 1007143
04:00+19ююв14100100 0.6 1006150
07:00+19зсз2410098 0.8 1007171
10:00+20сз4893100 0.1 1010564
13:00+24ссз566798 0.1 10101151
16:00+20ссз5874100 0.0 1012832
19:00+16ссз41084100 0.4 1014615
22:00+14ссв41094100 1.8 1016409